Hourly Weather Oualidia

Today, 5 December, Saturday

Time Temperature Precipitation Wind Pressure Humidity
00:00 +15°C° 0.1 mm 9 mps 756 mmHg 71%
01:00 +15°C° 0.1 mm 9 mps 756 mmHg 72%
02:00 +13°C° 0.1 mm 10 mps 756 mmHg 72%
03:00 +13°C° 0.1 mm 9 mps 756 mmHg 71%
04:00 +13°C° 0.1 mm 9 mps 756 mmHg 70%
05:00 +12°C° 0.1 mm 8 mps 757 mmHg 69%
06:00 +13°C° 0.1 mm 8 mps 757 mmHg 67%
07:00 +13°C° 0.1 mm 8 mps 758 mmHg 66%
08:00 +13°C° 0.1 mm 8 mps 758 mmHg 64%
09:00 +15°C° 0.1 mm 7 mps 758 mmHg 60%
10:00 +15°C° 0.1 mm 7 mps 759 mmHg 56%
11:00 +16°C° 0.1 mm 7 mps 759 mmHg 51%
12:00 +16°C° 0.1 mm 7 mps 758 mmHg 53%
13:00 +15°C° 0.1 mm 7 mps 758 mmHg 54%
14:00 +15°C° 0.1 mm 7 mps 758 mmHg 55%
15:00 +14°C° 0.1 mm 6 mps 758 mmHg 59%
16:00 +14°C° 0.1 mm 6 mps 758 mmHg 63%
17:00 +13°C° 0.1 mm 5 mps 758 mmHg 67%
18:00 +13°C° 0 mm 5 mps 759 mmHg 68%
19:00 +12°C° 0 mm 4 mps 759 mmHg 69%
20:00 +12°C° 0 mm 4 mps 760 mmHg 70%
21:00 +12°C° 0 mm 4 mps 760 mmHg 71%
22:00 +12°C° 0 mm 4 mps 760 mmHg 71%
23:00 +12°C° 0 mm 3 mps 760 mmHg 72%

Tomorrow, 6 December, Sunday

Time Temperature Precipitation Wind Pressure Humidity
00:00 +11°C° 0.1 mm 3 mps 760 mmHg 73%
01:00 +11°C° 0.1 mm 3 mps 760 mmHg 74%
02:00 +12°C° 0.1 mm 2 mps 760 mmHg 76%
03:00 +12°C° 0.1 mm 2 mps 760 mmHg 75%
04:00 +10°C° 0.1 mm 3 mps 760 mmHg 75%
05:00 +10°C° 0.1 mm 3 mps 760 mmHg 75%
06:00 +12°C° 0 mm 2 mps 760 mmHg 72%
07:00 +13°C° 0 mm 2 mps 761 mmHg 69%
08:00 +14°C° 0 mm 2 mps 761 mmHg 65%
09:00 +15°C° 0.1 mm 2 mps 761 mmHg 61%
10:00 +16°C° 0.1 mm 2 mps 761 mmHg 57%
11:00 +17°C° 0.1 mm 2 mps 761 mmHg 53%
12:00 +17°C° 0 mm 2 mps 761 mmHg 54%
13:00 +17°C° 0 mm 2 mps 761 mmHg 54%
14:00 +17°C° 0 mm 2 mps 761 mmHg 55%
15:00 +16°C° 0 mm 2 mps 761 mmHg 58%
16:00 +16°C° 0 mm 2 mps 761 mmHg 62%
17:00 +15°C° 0 mm 2 mps 761 mmHg 66%
18:00 +14°C° 0 mm 2 mps 762 mmHg 66%
19:00 +14°C° 0 mm 2 mps 762 mmHg 67%
20:00 +14°C° 0 mm 2 mps 763 mmHg 68%
21:00 +13°C° 0 mm 2 mps 763 mmHg 68%
22:00 +13°C° 0 mm 2 mps 763 mmHg 69%
23:00 +13°C° 0 mm 1 mps 763 mmHg 69%

Day after tomorrow, 7 December, Monday

Time Temperature Precipitation Wind Pressure Humidity
00:00 +13°C° 0 mm 1 mps 763 mmHg 70%
01:00 +12°C° 0 mm 1 mps 763 mmHg 71%
02:00 +12°C° 0 mm 1 mps 763 mmHg 71%
03:00 +12°C° 0 mm 1 mps 763 mmHg 72%
04:00 +12°C° 0 mm 2 mps 763 mmHg 74%
05:00 +12°C° 0 mm 2 mps 763 mmHg 75%
06:00 +13°C° 0 mm 2 mps 763 mmHg 72%
07:00 +13°C° 0 mm 2 mps 764 mmHg 69%
08:00 +13°C° 0 mm 3 mps 764 mmHg 66%
09:00 +16°C° 0 mm 2 mps 764 mmHg 62%
10:00 +17°C° 0 mm 2 mps 764 mmHg 59%
11:00 +19°C° 0 mm 1 mps 764 mmHg 55%
12:00 +19°C° 0 mm 2 mps 764 mmHg 55%
13:00 +19°C° 0 mm 2 mps 764 mmHg 56%
14:00 +19°C° 0 mm 3 mps 763 mmHg 57%
15:00 +18°C° 0 mm 3 mps 764 mmHg 64%
16:00 +17°C° 0 mm 2 mps 764 mmHg 71%
17:00 +16°C° 0 mm 2 mps 764 mmHg 78%
18:00 +15°C° 0 mm 2 mps 764 mmHg 81%
19:00 +15°C° 0 mm 2 mps 764 mmHg 83%
20:00 +15°C° 0 mm 2 mps 764 mmHg 86%
21:00 +15°C° 0 mm 2 mps 764 mmHg 87%
22:00 +14°C° 0 mm 1 mps 764 mmHg 87%
23:00 +14°C° 0 mm 1 mps 764 mmHg 88%

8 December, Tuesday

Time Temperature Precipitation Wind Pressure Humidity
00:00 +14°C° 0 mm 2 mps 764 mmHg 88%
01:00 +14°C° 0 mm 2 mps 764 mmHg 87%
02:00 +13°C° 0 mm 3 mps 764 mmHg 87%
03:00 +13°C° 0.2 mm 3 mps 764 mmHg 86%
04:00 +13°C° 0.2 mm 3 mps 764 mmHg 84%
05:00 +13°C° 0.2 mm 3 mps 764 mmHg 83%
06:00 +14°C° 0.1 mm 3 mps 764 mmHg 79%
07:00 +14°C° 0.1 mm 3 mps 765 mmHg 75%
08:00 +16°C° 0.1 mm 3 mps 765 mmHg 71%
09:00 +17°C° 0.1 mm 3 mps 765 mmHg 70%
10:00 +17°C° 0.1 mm 3 mps 765 mmHg 70%
11:00 +18°C° 0.1 mm 3 mps 765 mmHg 69%
12:00 +18°C° 0 mm 3 mps 764 mmHg 69%
13:00 +19°C° 0 mm 4 mps 764 mmHg 69%
14:00 +19°C° 0 mm 4 mps 764 mmHg 69%
15:00 +18°C° 0 mm 4 mps 764 mmHg 72%
16:00 +17°C° 0 mm 4 mps 764 mmHg 74%
17:00 +16°C° 0 mm 3 mps 764 mmHg 77%
18:00 +16°C° 0 mm 3 mps 764 mmHg 77%
19:00 +14°C° 0 mm 3 mps 765 mmHg 77%
20:00 +14°C° 0 mm 3 mps 765 mmHg 78%
21:00 +14°C° 0 mm 3 mps 765 mmHg 78%
22:00 +14°C° 0 mm 3 mps 764 mmHg 78%
23:00 +13°C° 0 mm 3 mps 764 mmHg 79%

9 December, Wednesday

Time Temperature Precipitation Wind Pressure Humidity
00:00 +14°C° 0 mm 2 mps 764 mmHg 81%
01:00 +13°C° 0 mm 2 mps 764 mmHg 83%
02:00 +13°C° 0 mm 2 mps 764 mmHg 85%
03:00 +13°C° 0 mm 2 mps 764 mmHg 83%
04:00 +14°C° 0 mm 2 mps 764 mmHg 81%
05:00 +14°C° 0 mm 2 mps 764 mmHg 79%
06:00 +15°C° 0 mm 2 mps 764 mmHg 77%
07:00 +14°C° 0 mm 3 mps 764 mmHg 75%
08:00 +16°C° 0 mm 3 mps 764 mmHg 73%
09:00 +17°C° 0 mm 2 mps 764 mmHg 70%
10:00 +18°C° 0 mm 2 mps 764 mmHg 66%
11:00 +20°C° 0 mm 1 mps 764 mmHg 63%
12:00 +20°C° 0 mm 2 mps 764 mmHg 63%
13:00 +20°C° 0 mm 2 mps 763 mmHg 64%
14:00 +20°C° 0 mm 3 mps 763 mmHg 65%
15:00 +19°C° 0 mm 3 mps 763 mmHg 70%
16:00 +18°C° 0 mm 3 mps 763 mmHg 76%
17:00 +17°C° 0 mm 3 mps 763 mmHg 81%
18:00 +16°C° 0 mm 3 mps 764 mmHg 82%
19:00 +16°C° 0 mm 3 mps 764 mmHg 83%
20:00 +16°C° 0 mm 3 mps 764 mmHg 83%
21:00 +15°C° 0 mm 4 mps 765 mmHg 85%
22:00 +14°C° 0 mm 4 mps 765 mmHg 86%
23:00 +14°C° 0 mm 5 mps 765 mmHg 87%

10 December, Thursday

Time Temperature Precipitation Wind Pressure Humidity
00:00 +14°C° 0 mm 5 mps 765 mmHg 89%
01:00 +14°C° 0 mm 5 mps 764 mmHg 91%
02:00 +13°C° 0 mm 5 mps 764 mmHg 93%
03:00 +13°C° 0 mm 5 mps 764 mmHg 93%
04:00 +13°C° 0 mm 5 mps 764 mmHg 93%
05:00 +13°C° 0 mm 5 mps 763 mmHg 94%
06:00 +13°C° 0 mm 5 mps 764 mmHg 91%
07:00 +14°C° 0 mm 5 mps 764 mmHg 87%
08:00 +14°C° 0 mm 5 mps 764 mmHg 84%
09:00 +16°C° 0 mm 5 mps 764 mmHg 75%
10:00 +17°C° 0 mm 5 mps 764 mmHg 67%
11:00 +20°C° 0 mm 5 mps 764 mmHg 58%
12:00 +20°C° 0 mm 5 mps 764 mmHg 56%
13:00 +21°C° 0 mm 5 mps 763 mmHg 55%
14:00 +21°C° 0 mm 5 mps 763 mmHg 53%
15:00 +19°C° 0 mm 5 mps 763 mmHg 62%
16:00 +17°C° 0 mm 5 mps 763 mmHg 71%
17:00 +15°C° 0 mm 5 mps 764 mmHg 80%
18:00 +15°C° 0 mm 5 mps 764 mmHg 82%
19:00 +14°C° 0 mm 5 mps 764 mmHg 83%
20:00 +14°C° 0 mm 5 mps 764 mmHg 85%
21:00 +14°C° 0 mm 5 mps 764 mmHg 86%
22:00 +13°C° 0 mm 5 mps 764 mmHg 87%
23:00 +13°C° 0 mm 4 mps 764 mmHg 88%
Show more